User: anonymous   Login
Location: Unspecified
(0.0000°N, 0.0000°E)
Time: 00:04:19
(UTC+00:00)
Language:

MetOp-A - Orbit

View from above orbital plane
View from above orbital plane
View from above satellite
View from above satellite

Ground track
Ground track

The orbit data is extracted from the following two-line orbital elements,

1 29499U 06044A   17172.92584491 -.00000009 +00000-0 +15653-4 0  9991
2 29499 098.6777 232.4665 0001839 128.5130 227.1117 14.21500102553626
Epoch (UTC): 21 June 2017 22:13:13
Eccentricity: 0.0001839
inclination: 98.6777°
perigee height: 819 km
apogee height: 821 km
right ascension of ascending node: 232.4665°
argument of perigee: 128.5130°
revolutions per day: 14.21500102
mean anomaly at epoch: 227.1117°
orbit number at epoch: 55362

The dashed part of the orbit path shows where the satellite is in the earth's shadow,  

DLR